Weather History for Kuwait, Kuwait

Change the Weather History Date:

Sunday, April 28, 2013

  Actual Average Record
Temperature  
Mean Temperature 80 °F -  
Max Temperature 95 °F 100 °F 113 °F (2002)
Min Temperature 66 °F 74 °F 48 °F (2003)
Cooling Degree Days 16    
Growing Degree Days 30 (Base 50)    
Moisture  
Dew Point 33 °F    
Average Humidity 21    
Maximum Humidity 38    
Minimum Humidity 4    
Precipitation  
Precipitation 0.00 in 0.01 in - ()
Sea Level Pressure  
Sea Level Pressure 29.90 in    
Wind  
Wind Speed 6 mph ()    
Max Wind Speed 13 mph    
Max Gust Speed -    
Visibility 7.2 miles    
Events      
Averages and records for this station are not official NWS values.
T = Trace of Precipitation, MM = Missing Value Source: Averaged Metar Reports

Daily Weather History Graph

Daily Weather History Graph

Search for Another Location

Airport:

Trip Planner

Search our weather history database for the weather conditions in past years. The results will help you decide how hot, cold, wet, or windy it might be!

Date:

Astronomy

Apr. 28, 2013 Rise Set
Actual Time 5:09 AM AST 6:22 PM AST
Civil Twilight 4:44 AM AST 6:47 PM AST
Nautical Twilight 4:14 AM AST 7:17 PM AST
Astronomical Twilight 3:43 AM AST 7:47 PM AST
Moon 9:21 PM AST (4/28) 7:10 AM AST (4/28)
Length of Visible Light 14h 03m
Length of Day
13h 13m
Waning Gibbous, 91% of the Moon is Illuminated
Apr 28
Waning Gibbous
May 2
Last Quarter
May 10
New
May 18
First Quarter
May 25
Full

Hourly Weather History & Observations

Time (AST) Temp. Dew Point Humidity Pressure Visibility Wind Dir Wind Speed Gust Speed Precip Events Conditions
12:00 AM 69.8 °F 32.0 °F 25% 29.95 in - South 6.9 mph - N/A   Clear
1:00 AM 68.0 °F 30.2 °F 24% 29.92 in - South 6.9 mph - N/A   Clear
2:00 AM 66.2 °F 28.4 °F 24% 29.92 in - SSW 5.8 mph - N/A   Clear
3:00 AM 67 °F 38 °F 23% 29.91 in 6 mi SW 4.6 mph - -  
3:00 AM 66.2 °F 37.4 °F 35% 29.92 in - SW 4.6 mph - N/A   Clear
4:00 AM 68.0 °F 35.6 °F 30% 29.89 in - West 4.6 mph - N/A   Clear
5:00 AM 71.6 °F 44.6 °F 38% 29.92 in - WSW 4.6 mph - N/A   Clear
6:00 AM 71.6 °F 42.8 °F 35% 29.92 in - WNW 5.8 mph - N/A   Clear
7:00 AM 73.4 °F 44.6 °F 36% 29.92 in - WNW 8.1 mph - N/A   Clear
8:00 AM 78.8 °F 42.8 °F 28% 29.92 in - WNW 8.1 mph - N/A   Clear
9:00 AM 83 °F 38 °F 11% 29.93 in 6 mi North 5.8 mph - -   Scattered Clouds
9:00 AM 82.4 °F 37.4 °F 20% 29.92 in 6.2 mi North 5.8 mph - N/A   Mostly Cloudy
10:00 AM 87.8 °F 28.4 °F 12% 29.92 in 6.2 mi NNE 6.9 mph - N/A   Mostly Cloudy
11:00 AM 91.4 °F 21.2 °F 8% 29.92 in - ENE 4.6 mph - N/A   Clear
12:00 PM 95.0 °F 17.6 °F 6% 29.92 in - Calm Calm - N/A   Clear
1:00 PM 91.4 °F 23.0 °F 8% 29.92 in - NNE 4.6 mph - N/A   Clear
2:00 PM 91.4 °F 21.2 °F 8% 29.89 in - East 6.9 mph - N/A   Clear
3:00 PM 91 °F 26 °F 4% 29.87 in 6 mi ESE 10.4 mph - -   Partly Cloudy
3:00 PM 91.4 °F 26.6 °F 10% 29.86 in - ESE 10.4 mph - N/A   Clear
4:00 PM 87.8 °F 26.6 °F 11% 29.86 in - ESE 12.7 mph - N/A   Clear
5:00 PM 87.8 °F 26.6 °F 11% 29.86 in - ESE 11.5 mph - N/A   Clear
6:00 PM 84.2 °F 23.0 °F 11% 29.86 in - ESE 9.2 mph - N/A   Clear
7:00 PM 82.4 °F 28.4 °F 14% 29.86 in - SE 6.9 mph - N/A   Clear
8:00 PM 78.8 °F 32.0 °F 18% 29.89 in - SSE 6.9 mph - N/A   Clear
9:00 PM 76 °F 45 °F 22% 29.90 in 13 mi SSE 5.8 mph - -   Partly Cloudy
9:00 PM 75.2 °F 44.6 °F 34% 29.89 in - SSE 5.8 mph - N/A   Clear
10:00 PM 75.2 °F 48.2 °F 38% 29.92 in - SSE 3.5 mph - N/A   Clear
11:00 PM 73.4 °F 46.4 °F 38% 29.92 in - SSE 4.6 mph - N/A   Clear